sat.trackr.live / text

‹ back to catalog

STARLINK-35537

NORAD 66234 · 2025-245A

PAYLOAD ACTIVE UNKNOWN

§ Identity

Operator
Country
US
Launch date
2025-10-29
Launch site
AFETR
Launch vehicle
Mass (kg)
RCS (m²)

Purposes: comms

External: N2YO · Heavens-Above · Gunter

§ Orbital elements

Epoch: 2026-09-20T22:21:58.049568Z

Period
94.01 min
Inclination
53.1595°
Eccentricity
0.0001216
Mean motion
15.31710055 rev/d
Perigee alt
469.9 km
Apogee alt
471.5 km
Semi-major
6,848.8 km
B*
4.8712e-4
RAAN
95.2696°
Arg perigee
112.3371°
Mean anomaly
247.7759°
Rev number
5,117

§ Raw data

STARLINK-355371 66234U 25245A   26263.93192187  .00014785  00000+0  48712-3 0  99972 66234  53.1595  95.2696 0001216 112.3371 247.7759 15.31710055 51179

JSON: /api/v1/satellites/66234 · /tle

For live sub-satellite position, see the globe view (requires WebGL).

§ Visibility from observer

Set your observer location to see the next 7 days of passes ≥ 10°. The values pass through the URL so the page stays shareable.

No JS? Fill the form by hand. The geolocation button needs JavaScript.